• In Deutschland
  • Länderverzeichnis
  • Für 7 Tage
  • Wassertemperatur
  • Satellitenkarten
  • Wetterkarte
  • Widgets
  • user-avatar
    Anmelden

    Stündliche Wetter Schumen

    Heute, 20 August, Sonntag

    Zeit Temperatur Niederschläge Wind Luftdruck Luftfeuchtigkeit
    00:00 +21°C° 0 mm 1 m/S 731 mmHg 49%
    01:00 +21°C° 0 mm 1 m/S 731 mmHg 50%
    02:00 +20°C° 0 mm 1 m/S 730 mmHg 50%
    03:00 +20°C° 0 mm 1 m/S 730 mmHg 52%
    04:00 +19°C° 0 mm 1 m/S 730 mmHg 53%
    05:00 +19°C° 0 mm 1 m/S 730 mmHg 55%
    06:00 +21°C° 0 mm 1 m/S 730 mmHg 50%
    07:00 +23°C° 0 mm 2 m/S 730 mmHg 46%
    08:00 +25°C° 0 mm 2 m/S 731 mmHg 42%
    09:00 +27°C° 0 mm 2 m/S 731 mmHg 38%
    10:00 +29°C° 0 mm 3 m/S 730 mmHg 35%
    11:00 +31°C° 0 mm 3 m/S 730 mmHg 31%
    12:00 +33°C° 0 mm 3 m/S 730 mmHg 30%
    13:00 +33°C° 0 mm 3 m/S 730 mmHg 28%
    14:00 +34°C° 0 mm 3 m/S 729 mmHg 27%
    15:00 +34°C° 0 mm 3 m/S 729 mmHg 28%
    16:00 +34°C° 0 mm 3 m/S 729 mmHg 29%
    17:00 +34°C° 0 mm 3 m/S 728 mmHg 30%
    18:00 +30°C° 0 mm 3 m/S 728 mmHg 40%
    19:00 +27°C° 0 mm 3 m/S 728 mmHg 50%
    20:00 +25°C° 0 mm 2 m/S 728 mmHg 59%
    21:00 +24°C° 0 mm 2 m/S 728 mmHg 66%
    22:00 +23°C° 0 mm 1 m/S 728 mmHg 73%
    23:00 +22°C° 0 mm 1 m/S 728 mmHg 79%

    Morgen, 21 August, Montag

    Zeit Temperatur Niederschläge Wind Luftdruck Luftfeuchtigkeit
    00:00 +21°C° 0 mm 1 m/S 727 mmHg 81%
    01:00 +21°C° 0 mm 1 m/S 727 mmHg 82%
    02:00 +18°C° 0 mm 0 m/S 727 mmHg 84%
    03:00 +20°C° 0 mm 1 m/S 727 mmHg 84%
    04:00 +20°C° 0 mm 1 m/S 727 mmHg 83%
    05:00 +20°C° 0 mm 1 m/S 727 mmHg 83%
    06:00 +20°C° 0 mm 2 m/S 727 mmHg 77%
    07:00 +21°C° 0 mm 3 m/S 727 mmHg 70%
    08:00 +24°C° 0 mm 3 m/S 727 mmHg 64%
    09:00 +25°C° 0 mm 4 m/S 727 mmHg 58%
    10:00 +27°C° 0 mm 4 m/S 727 mmHg 52%
    11:00 +28°C° 0 mm 4 m/S 727 mmHg 46%
    12:00 +29°C° 0,1 mm 3 m/S 727 mmHg 44%
    13:00 +29°C° 0,1 mm 3 m/S 727 mmHg 43%
    14:00 +30°C° 0,1 mm 3 m/S 727 mmHg 41%
    15:00 +29°C° 0,4 mm 3 m/S 726 mmHg 44%
    16:00 +28°C° 0,4 mm 4 m/S 726 mmHg 48%
    17:00 +27°C° 0,4 mm 4 m/S 726 mmHg 52%
    18:00 +25°C° 0,4 mm 5 m/S 726 mmHg 60%
    19:00 +22°C° 0,4 mm 5 m/S 726 mmHg 68%
    20:00 +21°C° 0,4 mm 5 m/S 726 mmHg 75%
    21:00 +20°C° 0,4 mm 5 m/S 727 mmHg 76%
    22:00 +20°C° 0,4 mm 5 m/S 727 mmHg 76%
    23:00 +19°C° 0,4 mm 5 m/S 727 mmHg 76%

    übermorgen, 22 August, Dienstag

    Zeit Temperatur Niederschläge Wind Luftdruck Luftfeuchtigkeit
    00:00 +18°C° 0,2 mm 4 m/S 727 mmHg 78%
    01:00 +17°C° 0,2 mm 4 m/S 728 mmHg 80%
    02:00 +17°C° 0,2 mm 3 m/S 728 mmHg 82%
    03:00 +16°C° 0,1 mm 3 m/S 728 mmHg 82%
    04:00 +16°C° 0,1 mm 3 m/S 728 mmHg 82%
    05:00 +16°C° 0,1 mm 3 m/S 728 mmHg 82%
    06:00 +16°C° 0,2 mm 3 m/S 728 mmHg 80%
    07:00 +15°C° 0,2 mm 4 m/S 729 mmHg 78%
    08:00 +15°C° 0,2 mm 4 m/S 729 mmHg 77%
    09:00 +15°C° 0,1 mm 4 m/S 729 mmHg 75%
    10:00 +16°C° 0,1 mm 3 m/S 730 mmHg 73%
    11:00 +17°C° 0,1 mm 3 m/S 730 mmHg 71%
    12:00 +18°C° 0 mm 3 m/S 730 mmHg 66%
    13:00 +19°C° 0 mm 3 m/S 730 mmHg 62%
    14:00 +20°C° 0 mm 3 m/S 729 mmHg 57%
    15:00 +21°C° 0 mm 3 m/S 729 mmHg 53%
    16:00 +22°C° 0 mm 3 m/S 729 mmHg 48%
    17:00 +24°C° 0 mm 3 m/S 729 mmHg 44%
    18:00 +21°C° 0 mm 2 m/S 729 mmHg 49%
    19:00 +19°C° 0 mm 2 m/S 729 mmHg 55%
    20:00 +18°C° 0 mm 2 m/S 729 mmHg 60%
    21:00 +17°C° 0 mm 2 m/S 730 mmHg 61%
    22:00 +17°C° 0 mm 2 m/S 730 mmHg 63%
    23:00 +16°C° 0 mm 2 m/S 730 mmHg 64%

    23 August, Mittwoch

    Zeit Temperatur Niederschläge Wind Luftdruck Luftfeuchtigkeit
    00:00 +16°C° 0 mm 2 m/S 730 mmHg 63%
    01:00 +16°C° 0 mm 2 m/S 730 mmHg 62%
    02:00 +16°C° 0 mm 2 m/S 730 mmHg 61%
    03:00 +16°C° 0 mm 2 m/S 730 mmHg 60%
    04:00 +16°C° 0 mm 2 m/S 730 mmHg 59%
    05:00 +16°C° 0 mm 2 m/S 730 mmHg 58%
    06:00 +17°C° 0 mm 2 m/S 731 mmHg 53%
    07:00 +19°C° 0 mm 3 m/S 731 mmHg 48%
    08:00 +21°C° 0 mm 3 m/S 731 mmHg 43%
    09:00 +22°C° 0 mm 4 m/S 732 mmHg 39%
    10:00 +25°C° 0 mm 4 m/S 732 mmHg 35%
    11:00 +27°C° 0 mm 5 m/S 732 mmHg 32%
    12:00 +27°C° 0 mm 5 m/S 732 mmHg 30%
    13:00 +28°C° 0 mm 5 m/S 732 mmHg 28%
    14:00 +29°C° 0 mm 5 m/S 731 mmHg 26%
    15:00 +28°C° 0 mm 4 m/S 731 mmHg 26%
    16:00 +28°C° 0 mm 4 m/S 731 mmHg 26%
    17:00 +28°C° 0 mm 4 m/S 731 mmHg 26%
    18:00 +25°C° 0 mm 3 m/S 731 mmHg 31%
    19:00 +23°C° 0 mm 2 m/S 732 mmHg 36%
    20:00 +21°C° 0 mm 1 m/S 732 mmHg 41%
    21:00 +20°C° 0 mm 1 m/S 732 mmHg 44%
    22:00 +19°C° 0 mm 1 m/S 732 mmHg 47%
    23:00 +18°C° 0 mm 1 m/S 732 mmHg 50%

    24 August, Donnerstag

    Zeit Temperatur Niederschläge Wind Luftdruck Luftfeuchtigkeit
    00:00 +18°C° 0 mm 1 m/S 732 mmHg 51%
    01:00 +18°C° 0 mm 1 m/S 732 mmHg 52%
    02:00 +16°C° 0 mm 1 m/S 733 mmHg 53%
    03:00 +16°C° 0 mm 1 m/S 733 mmHg 54%
    04:00 +16°C° 0 mm 1 m/S 733 mmHg 54%
    05:00 +15°C° 0 mm 1 m/S 733 mmHg 54%
    06:00 +18°C° 0 mm 1 m/S 733 mmHg 50%
    07:00 +20°C° 0 mm 1 m/S 734 mmHg 46%
    08:00 +22°C° 0 mm 1 m/S 735 mmHg 42%
    09:00 +24°C° 0 mm 1 m/S 735 mmHg 37%
    10:00 +26°C° 0 mm 1 m/S 735 mmHg 33%
    11:00 +28°C° 0 mm 1 m/S 735 mmHg 28%
    12:00 +29°C° 0 mm 2 m/S 735 mmHg 26%
    13:00 +30°C° 0 mm 2 m/S 735 mmHg 25%
    14:00 +30°C° 0 mm 2 m/S 735 mmHg 23%
    15:00 +30°C° 0 mm 2 m/S 735 mmHg 24%
    16:00 +29°C° 0 mm 3 m/S 735 mmHg 26%
    17:00 +29°C° 0 mm 3 m/S 734 mmHg 27%
    18:00 +26°C° 0 mm 3 m/S 735 mmHg 36%
    19:00 +24°C° 0 mm 3 m/S 735 mmHg 45%
    20:00 +20°C° 0 mm 3 m/S 735 mmHg 54%
    21:00 +19°C° 0 mm 2 m/S 735 mmHg 61%
    22:00 +19°C° 0 mm 2 m/S 735 mmHg 68%
    23:00 +18°C° 0 mm 2 m/S 735 mmHg 74%

    25 August, Freitag

    Zeit Temperatur Niederschläge Wind Luftdruck Luftfeuchtigkeit
    00:00 +17°C° 0 mm 2 m/S 735 mmHg 76%
    01:00 +18°C° 0 mm 1 m/S 735 mmHg 79%
    02:00 +18°C° 0 mm 1 m/S 735 mmHg 81%
    03:00 +16°C° 0 mm 1 m/S 735 mmHg 81%
    04:00 +16°C° 0 mm 1 m/S 735 mmHg 81%
    05:00 +16°C° 0 mm 1 m/S 735 mmHg 82%
    06:00 +19°C° 0 mm 1 m/S 736 mmHg 73%
    07:00 +21°C° 0 mm 1 m/S 736 mmHg 64%
    08:00 +23°C° 0 mm 2 m/S 737 mmHg 54%
    09:00 +25°C° 0 mm 2 m/S 737 mmHg 46%
    10:00 +27°C° 0 mm 3 m/S 737 mmHg 37%
    11:00 +29°C° 0 mm 4 m/S 737 mmHg 29%
    12:00 +29°C° 0 mm 4 m/S 737 mmHg 27%
    13:00 +30°C° 0 mm 4 m/S 737 mmHg 25%
    14:00 +30°C° 0 mm 5 m/S 736 mmHg 24%
    15:00 +29°C° 0 mm 5 m/S 736 mmHg 26%
    16:00 +29°C° 0 mm 5 m/S 736 mmHg 27%
    17:00 +28°C° 0 mm 5 m/S 736 mmHg 29%
    18:00 +25°C° 0 mm 4 m/S 736 mmHg 37%
    19:00 +22°C° 0 mm 4 m/S 736 mmHg 45%
    20:00 +19°C° 0 mm 3 m/S 736 mmHg 53%
    21:00 +19°C° 0 mm 3 m/S 736 mmHg 58%
    22:00 +18°C° 0 mm 2 m/S 736 mmHg 64%
    23:00 +17°C° 0 mm 2 m/S 736 mmHg 69%
    Mehr zeigen